KRAUCHNWS Weather Reports


time (UTC)temp
C
wind
direction
speed
KPH
gust
KPH
rain 1hr
cm
rain 24hr
cm
rain mn
cm
humidity
%
barometer
mb
20260507063211 7 227 19.3 0.0 0.00 0.00 0.08 95 1012.5
20260507060211 7 215 11.3 0.0 0.00 0.00 0.05 95 1012.3
20260507053211 7 194 14.5 0.0 0.00 0.00 0.05 95 1012.0
20260507050213 7 236 19.3 0.0 0.00 0.00 0.03 95 1011.6
20260507043211 7 274 16.1 0.0 0.00 0.00 0.00 94 1011.2
20260507040216 7 207 16.1 0.0 0.00 0.00 0.00 94 1011.1
20260507033211 7 225 12.9 0.0 0.00 0.00 0.00 94 1010.9
20260507030211 6 251 11.3 0.0 0.00 0.00 0.00 95 1010.8
20260507023211 6 244 11.3 0.0 0.00 0.00 0.00 95 1010.6
20260507020211 6 215 14.5 0.0 0.00 0.00 0.00 95 1010.5
20260507013212 6 202 20.9 0.0 0.00 0.00 0.00 95 1010.1
20260507010211 6 192 14.5 0.0 0.00 0.00 0.00 95 1010.3
20260507003209 6 165 17.7 0.0 0.00 0.00 0.00 95 1009.8
20260507000209 6 209 9.7 0.0 0.00 0.00 0.00 94 1009.7
20260506233209 6 190 9.7 0.0 0.00 0.00 0.00 93 1009.8
20260506230209 7 255 14.5 0.0 0.00 0.00 0.00 93 1009.7
20260506223209 7 229 11.3 0.0 0.00 0.00 0.00 94 1009.6
20260506213209 7 231 11.3 0.0 0.00 0.00 0.23 93 1009.4
20260506210210 7 229 12.9 0.0 0.00 0.00 0.23 93 1009.3
20260506203210 7 181 8.0 0.0 0.00 0.00 0.23 93 1009.1
20260506200210 7 255 19.3 0.0 0.00 0.00 0.23 93 1008.9
20260506193215 7 246 16.1 0.0 0.00 0.00 0.23 93 1008.7
20260506190211 8 188 19.3 0.0 0.00 0.00 0.23 92 1008.2
20260506183209 8 200 19.3 0.0 0.00 0.00 0.23 91 1007.9
20260506180216 8 239 19.3 0.0 0.00 0.00 0.23 91 1007.8
20260506173210 9 188 20.9 0.0 0.00 0.00 0.23 91 1007.3
20260506170215 9 240 11.3 0.0 0.00 0.00 0.23 93 1006.6
20260506163210 8 211 17.7 0.0 0.00 0.00 0.23 93 1006.9
20260506160210 8 232 19.3 0.0 0.00 0.00 0.23 93 1006.7
20260506153210 8 234 30.6 0.0 0.00 0.00 0.15 92 1006.7
20260506150210 9 213 45.1 0.0 0.00 0.00 0.08 91 1006.3
20260506143210 11 175 48.3 0.0 0.00 0.00 0.00 88 1005.4
20260506140210 13 248 22.5 0.0 0.00 0.00 0.00 72 1004.7
20260506133211 15 205 16.1 0.0 0.00 0.00 0.00 71 1004.6
20260506130211 15 255 9.7 0.0 0.00 0.00 0.00 68 1004.4
20260506123210 15 186 11.3 0.0 0.00 0.00 0.00 67 1004.6
20260506120210 15 316 8.0 0.0 0.00 0.00 0.00 68 1004.4
20260506113217 15 64 8.0 0.0 0.00 0.00 0.00 67 1004.6
20260506110210 14 135 6.4 0.0 0.00 0.00 0.00 70 1004.7
20260506100213 13 5 4.8 0.0 0.00 0.00 0.00 75 1004.9
20260506093211 13 148 3.2 0.0 0.00 0.00 0.00 77 1005.2
20260506090211 13 220 4.8 0.0 0.00 0.00 0.00 75 1005.1
20260506083211 12 158 6.4 0.0 0.00 0.00 0.00 86 1005.0
20260506080212 11 153 3.2 0.0 0.00 0.00 0.00 89 1005.1
20260506073211 10 166 4.8 0.0 0.00 0.00 0.00 94 1005.6
20260506070212 10 175 4.8 0.0 0.00 0.00 0.00 97 1005.6